Location: Bogis-Bossey
(46.3500°N, 6.1667°E)
Time: 20:11:03
(UTC+00:00)

USA 238 DEB - Pass Details

Date: 05 March 2024
Orbit: 926 x 1285 km, 63.4° (Epoch: 21 April)

Event Time Altitude Azimuth Distance (km) Brightness Sun altitude
Exits shadow 03:31:37 45° 312° (NW) 1,358 4.0 -27.1°
Maximum altitude 03:31:59 46° 321° (NW) 1,354 4.0 -27.1°
Drops below altitude 10° 03:38:35 10° 33° (NNE) 2,941 6.7 -26.0°
Sets 03:41:31 0° 40° (NE) 3,959 7.6 -25.5°
